Home   Weather   Dawson Creek   Past weeks

Flag for Canada Past Weather in Dawson Creek, British Columbia, Canada — Yesterday and Last 2 Weeks

Now
32 °F

Overcast.


Feels Like: 23 °F
Forecast: 26 / 33 °F
Wind: 12 mph from Northeast

Location: Dawson Creek Airport

Current Time: Apr 23, 2017 at 1:09:11 pm

Latest Report: Apr 23, 2017 at 12:00 pm


Visibility: 9 mi

Pressure: 29.97 "Hg (27.56 "Hg at 668m altitude)

Humidity: 87%

Dew Point: 28 °F

Location of Dawson CreekLocation

Past Weather in Dawson Creek — Graph

°F

Dawson Creek Temperature Yesterday

Maximum temperature yesterday: 39 °F (at 3:00 pm)
Minimum temperature yesterday: 30 °F (at 7:07 am)
Average temperature yesterday: 34 °F

High & Low Weather Summary for the Past Weeks

 TemperatureHumidityPressure
High52 °F (Apr 9, 2:00 pm)100% (Apr 13, 4:38 am)30.42 "Hg (Apr 13, 4:38 am)
Low19 °F (Apr 18, 3:55 am)30% (Apr 9, 5:00 pm)29.72 "Hg (Apr 8, 11:10 am)
Average34 °F84%30.10 "Hg
* Reported Apr 8 11:10 am — Apr 23 11:33 am, Dawson Creek, Weather by CustomWeather, © 2017

Note: Actual official high and low records may vary slightly from our data, if they occured in-between our weather recording intervals... More about our weather records

Advertising

Dawson Creek Weather History for the Previous 24 Hours

Scroll right to see more
 ConditionsComfort  
Time TempWeatherWind HumidityBarometerVisibility
11:33 am
Sun, Apr 23
32 °FLight snow. Overcast.12 mph80%29.98 "Hg9 mi
11:00 am32 °FLight snow. Overcast.12 mph87%29.98 "Hg9 mi
10:00 am30 °FLight snow. Overcast.12 mph86%29.99 "Hg9 mi
9:25 am30 °FLight snow. Overcast.13 mph86%29.99 "Hg7 mi
9:05 am30 °FLight snow. Overcast.12 mph86%30.00 "Hg5 mi
8:00 am28 °FLight snow. Overcast.12 mph93%30.02 "Hg9 mi
7:00 am28 °FLight snow. Overcast.10 mph93%30.02 "Hg9 mi
6:39 am28 °FLight snow. Mostly cloudy.10 mph93%30.02 "Hg9 mi
6:25 am28 °FLight snow. Mostly cloudy.10 mph93%30.02 "Hg9 mi
6:00 am28 °FLight snow. Mostly cloudy.9 mph93%30.03 "Hg9 mi
5:00 am28 °FLight snow. Overcast.9 mph93%30.04 "Hg9 mi
4:36 am28 °FLight snow. Overcast.9 mph93%30.05 "Hg6 mi
3:57 am30 °FLight snow. Mostly cloudy.10 mph80%30.06 "Hg5 mi
3:00 am32 °FLight snow. Mostly cloudy.8 mph69%30.08 "Hg9 mi
2:00 am32 °FLight snow. Overcast.9 mph75%30.10 "Hg9 mi
1:21 am32 °FLight snow. Overcast.12 mph69%30.12 "Hg9 mi
12:00 am34 °FOvercast.15 mph60%30.14 "Hg9 mi
11:00 pm
Sat, Apr 22
34 °FOvercast.14 mph70%30.16 "Hg9 mi
10:00 pm36 °FOvercast.12 mph60%30.19 "Hg9 mi
9:00 pm36 °FOvercast.10 mph60%30.21 "Hg9 mi
8:00 pm36 °FOvercast.14 mph60%30.22 "Hg9 mi
7:00 pm37 °FOvercast.14 mph56%30.24 "Hg9 mi
6:00 pm39 °FPartly sunny.12 mph56%30.25 "Hg9 mi
5:00 pm39 °FPartly sunny.15 mph52%30.27 "Hg9 mi
4:07 pm39 °FPartly sunny.14 mph56%30.29 "Hg9 mi
3:00 pm39 °FPartly sunny.16 mph56%30.32 "Hg9 mi
2:00 pm37 °FOvercast.16 mph65%30.34 "Hg9 mi
1:00 pm36 °FOvercast.13 mph70%30.38 "Hg9 mi
Weather by CustomWeather, © 2017

See weather overviewHow to use our weather pages